КПП «Садахло» ,
на границе Грузия - Армения,
41.2° N, 44.79° E 473 m
Погода на ближайший час
8°
Световой день:
13 ч 6мин06:29
19:35
КПП «Садахло» ,
на границе Грузия - Армения,
41.2° N, 44.79° E 473 m
Погода на ближайший час
Световой день:
13 ч 6мин06:29
19:35
| Темпер.°C | Осадки | Ветер м/с | Давление | Влажность | Облачность | туман | |||
| Сегодня | |||||||||
| 21:00 | ![]() | 0 mm | 2.4 m/s | 1014.4 hPa | 88% | 38% | 0% | ||
| 22:00 | ![]() | 0 mm | 2 m/s | 1015.1 hPa | 90% | 15% | 0% | ||
| 23:00 | ![]() | 0 mm | 2.1 m/s | 1015.3 hPa | 90% | 53% | 0% | ||
| Завтра | |||||||||
| 00:00 | ![]() | 0 mm | 2.3 m/s | 1015.6 hPa | 86% | 14% | 0% | ||
| 01:00 | ![]() | 0 mm | 2 m/s | 1016.1 hPa | 88% | 39% | 0% | ||
| 02:00 | ![]() | 0 mm | 1.4 m/s | 1016.1 hPa | 89% | 38% | 0% | ||
| 03:00 | ![]() | 0.3 mm | 1.2 m/s | 1016.4 hPa | 90% | 52% | 0% | ||
| 04:00 | ![]() | 0.1 mm | 1.5 m/s | 1017.1 hPa | 92% | 47% | 0% | ||
| 05:00 | ![]() | 0 mm | 1.2 m/s | 1017.3 hPa | 94% | 63% | 0% | ||
| 06:00 | ![]() | 0 mm | 1.3 m/s | 1017.4 hPa | 95% | 27% | 0% | ||
| 07:00 | ![]() | 0 mm | 1.5 m/s | 1017.3 hPa | 95% | 37% | 0% | ||
| 08:00 | ![]() | 0 mm | 1.4 m/s | 1017.7 hPa | 92% | 48% | 2% | ||
| 09:00 | ![]() | 0 mm | 1.1 m/s | 1017.3 hPa | 80% | 45% | 0% | ||
| 10:00 | ![]() | 0 mm | 1.4 m/s | 1016.7 hPa | 74% | 57% | 0% | ||
| 11:00 | ![]() | 0 mm | 2 m/s | 1015.8 hPa | 68% | 20% | 0% | ||
| 12:00 | ![]() | 0 mm | 2.5 m/s | 1015.3 hPa | 64% | 31% | 0% | ||
| 13:00 | ![]() | 0 mm | 2.9 m/s | 1014.5 hPa | 61% | 44% | 0% | ||
| 14:00 | ![]() | 0 mm | 2.6 m/s | 1014.2 hPa | 60% | 92% | 0% | ||
| 15:00 | ![]() | 0.2 mm | 2.3 m/s | 1013.3 hPa | 59% | 91% | 0% | ||
| 16:00 | ![]() | 0 mm | 3 m/s | 1012.5 hPa | 62% | 69% | 0% | ||
| 17:00 | ![]() | 0 mm | 3.3 m/s | 1012.1 hPa | 66% | 13% | 0% | ||
| 18:00 | ![]() | 0 mm | 1.9 m/s | 1012.1 hPa | 70% | 16% | 0% | ||
| 19:00 | ![]() | 0.2 mm | 1.6 m/s | 1012.6 hPa | 81% | 22% | 0% | ||
| 20:00 | ![]() | 0 mm | 1.2 m/s | 1013.8 hPa | 90% | 27% | 0% | ||
| 21:00 | ![]() | 0 mm | 1.2 m/s | 1014.8 hPa | 91% | 28% | 0% | ||
| 22:00 | ![]() | 0.1 mm | 0.8 m/s | 1015.2 hPa | 89% | 50% | 0% | ||
| 23:00 | ![]() | 0.5 mm | 2.2 m/s | 1015.6 hPa | 90% | 59% | 0% | ||
| Воскресенье 12-04-2026 | |||||||||
| 00:00 | ![]() | 0.2 mm | 1.4 m/s | 1016.1 hPa | 95% | 59% | 0% | ||
| 01:00 | ![]() | 0.3 mm | 1.5.0 m/s | 1016.0 hPa | 96% | 71% | 0% | ||
| 02:00 | ![]() | 0.1 mm | 2.5 m/s | 1016.4 hPa | 98% | 63% | 0% | ||
| 03:00 | ![]() | 0 mm | 1.9 m/s | 1016.6 hPa | 96% | 51% | 0% | ||
| 04:00 | ![]() | 0.4 mm | 1.4 m/s | 1016.7 hPa | 96% | 73% | 0% | ||
| 05:00 | ![]() | 0.2 mm | 1.2.0 m/s | 1017.0 hPa | 95% | 91% | 0% | ||
| 06:00 | ![]() | 0 mm | 0.8 m/s | 1016.9 hPa | 96% | 98% | 0% | ||
| 07:00 | ![]() | 0 mm | 0.8 m/s | 1017.1 hPa | 97% | 100% | 0% | ||
| 08:00 | ![]() | 0.1 mm | 1.3 m/s | 1017.3 hPa | 96% | 97% | 0% | ||
| 09:00 | ![]() | 0 mm | 1.7 m/s | 1017.3 hPa | 96% | 94% | 0% | ||
| 10:00 | ![]() | 0 mm | 1.5 m/s | 1017.1 hPa | 89% | 88% | 0% | ||
| 11:00 | ![]() | 0 mm | 1.6.0 m/s | 1017.0 hPa | 85% | 81% | 0% | ||
| 12:00 | ![]() | 0 mm | 1.6.0 m/s | 1016.0 hPa | 77% | 73% | 0% | ||
| 13:00 | ![]() | 0 mm | 2.0 m/s | 1015.0 hPa | 71% | 37% | 0% | ||
| 14:00 | ![]() | 0 mm | 2.3 m/s | 1014.3 hPa | 65% | 66% | 0% | ||
| 15:00 | ![]() | 0 mm | 2.4 m/s | 1013.8 hPa | 67% | 73% | 0% | ||
| 16:00 | ![]() | 0 mm | 2.1.0 m/s | 1013.0 hPa | 67% | 84% | 0% | ||
| 17:00 | ![]() | 0 mm | 1.4 m/s | 1012.5 hPa | 68% | 96% | 0% | ||
| 18:00 | ![]() | 0.4 mm | 1.5 m/s | 1012.5 hPa | 69% | 99% | 0% | ||
| 19:00 | ![]() | 0.7 mm | 2 m/s | 1012.9 hPa | 79% | 100% | 0% | ||
| 20:00 | ![]() | 1 mm | 1.4 m/s | 1013.4 hPa | 91% | 100% | 0% | ||
| 21:00 | ![]() | 0.6 mm | 1.4 m/s | 1013.7 hPa | 93% | 100% | 0% | ||
| 22:00 | ![]() | 0.2 mm | 1.5 m/s | 1013.8 hPa | 94% | 97% | 0% | ||
| 23:00 | ![]() | 0 mm | 1.8.0 m/s | 1014.0 hPa | 96% | 100% | 0% | ||
| Понедельник 13-04-2026 | |||||||||
| 00:00 | ![]() | 0 mm | 1.4 m/s | 1014.2 hPa | 98% | 100% | 0% | ||
| 01:00 | ![]() | 0 mm | 1.7 m/s | 1014.3 hPa | 98% | 100% | 0% | ||
| 02:00 | ![]() | 0 mm | 1.6 m/s | 1014.2 hPa | 97% | 100% | 17% | ||
| 03:00 | ![]() | 0.2 mm | 1.6 m/s | 1013.9 hPa | 98% | 100% | 0% | ||
| 04:00 | ![]() | 0.2 mm | 1.4 m/s | 1013.6 hPa | 98% | 100% | 0% | ||
| 05:00 | ![]() | 0.3 mm | 1.3 m/s | 1013.2 hPa | 99% | 100% | 2% | ||
| 06:00 | ![]() | 0 mm | 1.1 m/s | 1012.8 hPa | 98% | 100% | 0% | ||
| 07:00 | ![]() | 0.4 mm | 1.2 m/s | 1012.9 hPa | 98% | 100% | 0% | ||
| 08:00 | ![]() | 1.1 mm | 1.4 m/s | 1013.5 hPa | 97% | 100% | 0% | ||
| 09:00 | ![]() | 1.1 mm | 1.6 m/s | 1013.9 hPa | 98% | 100% | 53% | ||
| 10:00 | ![]() | 2.3 mm | 2.1 m/s | 1014.5 hPa | 92% | 100% | 0% | ||
| 16:00 | ![]() | 1 mm | 1 m/s | 1014.4 hPa | 74% | 100% | 0% | ||
| 22:00 | ![]() | 0 mm | 0.5 m/s | 1017.7 hPa | 86% | 22% | 0% | ||
| Вторник 14-04-2026 | |||||||||
| 04:00 | ![]() | 0 mm | 2.4 m/s | 1019.5 hPa | 92% | 0% | 0% | ||
| 10:00 | ![]() | 0.9 mm | 0.8 m/s | 1020.7 hPa | 48% | 2% | 0% | ||
| 16:00 | ![]() | 2 mm | 2.6 m/s | 1018.5 hPa | 46% | 95% | 0% | ||
| 22:00 | ![]() | 0.4 mm | 2.1 m/s | 1023.2 hPa | 91% | 100% | 0% | ||
| Среда 15-04-2026 | |||||||||
| 04:00 | ![]() | 0 mm | 0.8 m/s | 1024.2 hPa | 89% | 0% | 0% | ||
| 10:00 | ![]() | 0 mm | 0.5 m/s | 1022.9 hPa | 50% | 0% | 0% | ||
| 16:00 | ![]() | 0 mm | 1.6 m/s | 1018.5 hPa | 30% | 0% | 0% | ||
| 22:00 | ![]() | 0 mm | 2.2 m/s | 1020.6 hPa | 61% | 0% | 0% | ||
| Четверг 16-04-2026 | |||||||||
| 04:00 | ![]() | 0 mm | 3.6 m/s | 1020.2 hPa | 42% | 0% | 0% | ||
| 10:00 | ![]() | 0 mm | 0.8 m/s | 1020.3 hPa | 32% | 0% | 0% | ||
| 16:00 | ![]() | 0 mm | 2.3 m/s | 1019.5 hPa | 28% | 0% | 0% | ||
| 22:00 | ![]() | 0 mm | 0.8.0 m/s | 1023.0 hPa | 67% | 0% | 0% | ||
| Пятница 17-04-2026 | |||||||||
| 04:00 | ![]() | 0 mm | 0.7 m/s | 1024.7 hPa | 73% | 0% | 0% | ||
| 10:00 | ![]() | 0 mm | 1.4 m/s | 1023.6 hPa | 62% | 0% | 0% | ||
| 16:00 | ![]() | 0 mm | 2.3 m/s | 1019.3 hPa | 57% | 0% | 0% | ||
| 22:00 | ![]() | 0 mm | 0.5.0 m/s | 1020.0 hPa | 81% | 0% | 0% | ||
| Суббота 18-04-2026 | |||||||||
| 04:00 | ![]() | 0 mm | 0.6 m/s | 1019.5 hPa | 83% | 6% | 0% | ||
| 10:00 | ![]() | 0 mm | 0.9 m/s | 1017.8 hPa | 79% | 34% | 0% | ||
| 16:00 | ![]() | 0.1 mm | 1 m/s | 1013.1 hPa | 72% | 0% | 0% | ||
| 22:00 | ![]() | 0 mm | 0.9 m/s | 1012.6 hPa | 92% | 14% | 0% | ||
| Воскресенье 19-04-2026 | |||||||||
| 04:00 | ![]() | 0 mm | 1.8 m/s | 1012.1 hPa | 93% | 1% | 0% | ||
| 10:00 | ![]() | 0.4 mm | 0.5 m/s | 1013.3 hPa | 56% | 0% | 0% | ||
| 16:00 | ![]() | 0 mm | 1.8 m/s | 1012.5 hPa | 49% | 26% | 0% | ||
| 22:00 | ![]() | 0.1 mm | 1 m/s | 1014.6 hPa | 79% | 9% | 0% | ||
| Понедельник 20-04-2026 | |||||||||
| 04:00 | ![]() | mm | 0.6 m/s | 1018.3 hPa | 91% | 10% | 0% | ||
Норвежский сайт погоды КПП Садахло Грузия - Армения .









